Flag for Germany Weather past 2 weeks in Dresden, Saxony, Germany

Now
52 °F

Clear.


Feels Like: 51 °F
Forecast: 48 / 70 °F
Wind: 5 mph from South

Location: Dresden-Klotzsche

Current Time: Aug 21, 2014 at 1:35:32 AM

Latest Report: Aug 21, 2014 at 12:50 AM


Visibility: 10 mi

Pressure: 30.01 "Hg

Humidity: 77%

Dew point: 45 °F

Location of DresdenLocation

Historic Weather in Dresden — Graph

°F

Dresden temperature yesterday

Maximum temperature yesterday: 64 °F (at 3:20 PM)
Minimum temperature yesterday: 50 °F (at 5:20 AM)
Average temperature yesterday: 57 °F

Past Weeks' High & Low Weather Summary

 TemperatureHumidityPressure
High84 °F (Aug 10, 4:20 PM)100% (Aug 8, 6:20 AM)30.09 "Hg (Aug 8, 6:20 AM)
Low50 °F (Aug 20, 5:20 AM)33% (Aug 12, 3:20 PM)29.65 "Hg (Aug 13, 6:50 PM)
Average64 °F68%29.90 "Hg
* Reported Aug 6 12:20 AM — Aug 21 12:20 AM, Dresden, Weather by CustomWeather, © 2014

Note: Actual official high and low records may vary slightly from our data, if they occured in-between our weather recording intervals... More about our weather records

Advertising

Dresden weather history for previous 24 hours

 ConditionsComfort  
Time TempWeatherWind HumidityBarometerVisibility
12:20 AM
Aug 21
54 °FClear.2 mph72%30.01 "Hg10 mi
11:50 PM
Aug 20
54 °FClear.2 mph67%30.01 "Hg10 mi
11:20 PM54 °FClear.5 mph67%29.98 "Hg10 mi
10:50 PM57 °FClear.2 mph59%30.01 "Hg10 mi
10:20 PM57 °FClear.2 mph55%30.01 "Hg10 mi
9:50 PM59 °FClear.3 mph51%30.01 "Hg10 mi
9:20 PM57 °FClear.2 mph55%30.01 "Hg10 mi
8:50 PM57 °FSunny.1 mph55%29.98 "Hg10 mi
8:20 PM59 °FSunny.2 mph55%29.98 "Hg10 mi
7:50 PM61 °FSunny.2 mph48%29.98 "Hg10 mi
7:20 PM63 °FSunny.3 mph45%29.98 "Hg10 mi
6:50 PM63 °FPartly sunny.5 mph45%29.98 "HgN/A
6:20 PM63 °FPartly sunny.7 mph42%29.98 "HgN/A
5:50 PM64 °FPartly sunny.6 mph40%29.98 "HgN/A
5:20 PM64 °FPartly sunny.8 mph37%29.98 "HgN/A
4:50 PM64 °FScattered clouds.8 mph40%29.98 "HgN/A
4:20 PM64 °FScattered clouds.9 mph43%29.98 "HgN/A
3:50 PM63 °FScattered clouds.10 mph45%29.98 "HgN/A
3:20 PM64 °FScattered clouds.9 mph43%29.98 "HgN/A
2:50 PM63 °FScattered clouds.12 mph49%29.98 "HgN/A
2:20 PM63 °FScattered clouds.9 mph45%30.01 "HgN/A
1:50 PM61 °FScattered clouds.10 mph48%29.98 "HgN/A
1:20 PM61 °FPartly sunny.12 mph48%29.98 "HgN/A
12:50 PM61 °FPartly sunny.12 mph52%29.98 "HgN/A
12:20 PM61 °FPartly sunny.13 mph52%29.98 "HgN/A
11:50 AM59 °FScattered clouds.12 mph51%29.98 "HgN/A
11:20 AM59 °FPassing clouds.14 mph51%29.98 "HgN/A
10:50 AM59 °FPassing clouds.13 mph55%30.01 "HgN/A
10:20 AM57 °FPassing clouds.13 mph59%30.01 "HgN/A
9:50 AM55 °FPassing clouds.10 mph63%30.01 "HgN/A
9:20 AM55 °FPassing clouds.9 mph63%29.98 "HgN/A
8:50 AM54 °FPassing clouds.10 mph67%29.98 "HgN/A
8:20 AM54 °FSunny.10 mph72%29.98 "Hg10 mi
7:50 AM52 °FSunny.9 mph77%29.98 "Hg10 mi
7:20 AM52 °FSunny.9 mph72%29.98 "Hg10 mi
6:50 AM50 °FClear.9 mph76%29.95 "Hg10 mi
6:20 AM50 °FClear.6 mph76%29.95 "Hg10 mi
5:50 AM50 °FClear.6 mph76%29.95 "Hg10 mi
5:20 AM50 °FClear.6 mph76%29.95 "Hg10 mi
4:50 AM52 °FClear.6 mph77%29.95 "Hg10 mi
4:20 AM52 °FClear.7 mph77%29.92 "Hg10 mi
3:50 AM52 °FClear.8 mph82%29.92 "Hg10 mi
3:20 AM54 °FPassing clouds.7 mph77%29.92 "HgN/A
2:50 AM54 °FClear.7 mph77%29.92 "Hg10 mi
2:20 AM54 °FClear.8 mph82%29.92 "Hg10 mi
1:50 AM54 °FClear.9 mph82%29.92 "Hg10 mi
1:20 AM54 °FClear.7 mph82%29.89 "Hg10 mi
Weather by CustomWeather, © 2014

See weather overviewHow to use our weather pages